Date,TemperatureHighF,TemperatureAvgF,TemperatureLowF,DewpointHighF,DewpointAvgF,DewpointLowF,HumidityHigh,HumidityAvg,HumidityLow,PressureMaxIn,PressureMinIn,WindSpeedMaxMPH,WindSpeedAvgMPH,GustSpeedMaxMPH,PrecipitationSumIn
2013-1-1,43,40,37,33,29,25,74,64,56,30.05,29.93,8,3,11,0.00
2013-1-2,38,34,29,30,22,15,74,61,50,30.27,30.03,12,3,17,0.00
2013-1-3,39,31,26,22,19,15,69,60,47,30.29,30.18,7,1,10,0.00
2013-1-4,44,36,29,26,22,21,73,58,45,30.24,30.14,12,4,18,0.00
2013-1-5,44,38,32,32,24,20,77,56,43,30.41,30.18,15,4,22,0.00
2013-1-6,52,43,34,34,31,29,84,63,43,30.22,30.05,11,2,13,0.00
2013-1-7,46,41,33,32,28,25,74,61,50,30.46,30.17,12,4,17,0.00
2013-1-8,54,41,32,36,32,26,83,70,46,30.45,30.39,6,2,9,0.00
2013-1-9,51,43,35,43,38,32,91,81,48,30.42,30.26,11,2,14,0.01
2013-1-10,54,48,41,33,31,29,63,52,39,30.63,30.42,12,3,14,0.00
2013-1-11,45,42,38,42,36,30,97,81,62,30.52,30.12,3,1,5,0.07
2013-1-12,56,45,41,50,44,40,98,94,77,30.20,30.12,4,1,5,0.00
2013-1-13,57,50,42,57,49,42,99,98,97,30.17,30.00,6,2,8,0.01
2013-1-14,59,53,40,59,48,38,99,85,67,30.32,29.97,17,4,22,0.11
2013-1-15,40,39,36,39,38,35,96,95,91,30.37,30.18,7,2,10,0.71
2013-1-16,41,38,35,40,37,34,97,97,96,30.18,29.88,9,2,12,0.28
2013-1-17,43,41,38,41,35,31,97,80,65,30.16,30.00,9,3,13,0.01
2013-1-18,38,35,32,32,24,15,78,64,42,30.51,30.07,16,6,21,0.00
2013-1-19,54,42,31,34,28,24,78,59,42,30.44,29.99,10,4,13,0.00
2013-1-20,60,46,35,36,25,12,70,47,24,30.10,29.86,16,5,25,0.00
2013-1-21,46,36,29,29,21,14,60,54,45,30.12,29.82,20,4,26,0.00
2013-1-22,29,21,17,15,2,-3,55,44,31,30.33,29.96,20,8,27,0.00
2013-1-23,26,20,14,13,4,1,67,49,34,30.40,30.19,12,3,16,0.00
2013-1-24,26,21,17,17,11,5,89,67,42,30.56,30.13,20,4,27,0.04
2013-1-25,23,20,17,19,10,3,89,65,46,30.56,30.11,8,2,11,0.00
2013-1-26,35,28,22,26,22,18,87,80,66,30.48,30.13,9,2,15,0.04
2013-1-27,39,31,26,23,21,18,86,68,49,30.63,30.48,7,2,9,0.00
2013-1-28,48,37,31,43,34,23,96,88,72,30.53,30.08,8,3,13,0.15
2013-1-29,69,55,44,55,49,42,93,80,59,30.16,29.99,7,2,9,0.00
2013-1-30,70,62,56,63,58,52,97,87,76,29.99,29.25,12,4,19,1.02
2013-1-31,62,43,30,61,30,14,98,60,42,29.94,29.17,22,8,35,0.37
2013-2-1,32,26,19,25,13,6,90,58,42,30.43,29.83,25,8,35,0.00
2013-2-2,31,24,16,27,15,6,92,69,45,30.43,30.05,10,2,14,0.00
2013-2-3,33,30,25,30,27,20,95,87,64,30.05,29.86,17,2,25,0.02
2013-2-4,36,31,24,23,18,14,66,59,49,30.14,29.93,21,4,21,0.00
2013-2-5,41,36,32,30,27,22,76,68,61,29.97,29.88,5,1,8,0.00
2013-2-6,47,38,31,32,28,23,88,69,51,30.38,29.97,18,4,23,0.00
2013-2-7,40,35,30,31,25,21,79,68,61,30.48,30.25,8,2,13,0.00
2013-2-8,42,37,33,39,33,24,96,86,64,30.23,29.77,22,6,34,0.25
2013-2-9,41,34,29,24,20,17,70,57,43,30.42,29.95,29,10,34,0.00
2013-2-10,45,36,26,28,20,16,71,53,33,30.51,30.26,8,2,8,0.00
2013-2-11,54,45,37,51,42,28,97,91,46,30.26,29.74,9,3,12,0.19
2013-2-12,56,49,41,34,30,27,67,49,36,30.02,29.84,16,5,10,0.00
2013-2-13,46,38,34,37,31,27,96,76,57,29.98,29.68,10,3,12,0.24
2013-2-14,49,40,33,34,31,28,96,73,46,30.05,29.81,11,3,14,0.03
2013-2-15,61,44,35,40,34,30,94,71,37,30.06,29.92,24,4,28,0.11
2013-2-16,39,35,30,35,30,19,96,82,58,30.04,29.87,17,4,21,0.01
2013-2-17,32,28,24,19,13,7,70,56,40,30.24,29.87,27,10,35,0.00
2013-2-18,43,31,20,19,12,9,63,47,29,30.42,30.20,16,4,20,0.00
2013-2-19,44,40,35,42,32,19,92,74,50,30.20,29.75,11,4,16,0.10
2013-2-20,40,33,25,25,17,11,62,53,43,30.20,29.88,22,10,28,0.00
2013-2-21,39,30,24,20,16,11,65,56,43,30.36,30.16,18,7,24,0.00
2013-2-22,33,31,29,31,24,18,93,76,61,30.42,30.25,8,2,14,0.06
2013-2-23,44,38,33,43,37,31,97,96,93,30.25,29.84,8,2,13,0.04
2013-2-24,52,42,32,41,32,20,97,72,43,30.14,29.83,23,8,28,0.00
2013-2-25,47,37,29,29,24,20,75,60,43,30.25,30.13,14,3,14,0.00
2013-2-26,44,38,33,43,34,25,96,84,66,30.25,29.62,18,4,30,0.80
2013-2-27,56,47,39,45,39,34,97,77,52,29.72,29.55,16,4,16,0.02
2013-2-28,48,43,39,38,32,27,87,65,46,29.76,29.66,13,5,19,0.02
2013-3-1,43,40,36,32,30,26,73,66,55,29.92,29.75,15,6,19,0.00
2013-3-2,37,33,30,26,24,21,75,68,56,29.92,29.85,18,7,18,0.00
2013-3-3,42,33,29,24,21,18,76,61,44,29.95,29.83,20,8,27,0.00
2013-3-4,43,35,28,22,19,16,66,53,38,30.07,29.95,22,8,28,0.00
2013-3-5,51,40,31,32,21,14,84,48,23,30.11,29.83,11,4,14,0.00
2013-3-6,38,35,33,35,33,31,96,93,84,30.03,29.61,17,5,27,0.66
2013-3-7,47,40,34,33,30,28,85,68,51,30.18,30.02,19,8,26,0.28
2013-3-8,50,42,36,32,29,28,76,63,48,30.29,30.16,24,10,32,0.00
2013-3-9,59,46,34,30,27,25,72,50,28,30.38,30.28,10,4,10,0.00
2013-3-10,62,51,37,36,27,20,68,41,20,30.35,30.24,7,2,10,0.00
2013-3-11,60,51,43,51,45,36,94,81,68,30.27,29.95,7,3,11,0.00
2013-3-12,58,53,42,56,46,32,96,79,60,29.98,29.71,19,7,25,0.85
2013-3-13,51,41,34,32,27,20,76,58,35,30.09,29.92,26,6,26,0.00
2013-3-14,44,37,32,22,19,17,62,48,33,30.16,30.06,25,9,31,0.00
2013-3-15,57,44,32,34,26,19,66,49,32,30.13,29.81,15,3,20,0.00
2013-3-16,60,49,39,52,38,34,91,67,52,29.92,29.65,9,2,13,0.04
2013-3-17,40,38,33,35,31,27,90,78,62,30.30,29.92,8,1,9,0.00
2013-3-18,38,36,31,36,31,23,96,83,57,30.35,29.91,9,3,15,0.42
2013-3-19,58,45,36,42,31,11,97,66,17,29.94,29.75,24,5,32,0.01
2013-3-20,52,44,36,27,17,11,59,33,25,30.01,29.79,19,5,21,0.00
2013-3-21,40,34,29,28,18,10,87,53,38,29.93,29.78,18,8,25,0.00
2013-3-22,47,36,28,24,18,12,58,48,36,30.03,29.92,17,5,23,0.00
2013-3-23,52,42,30,30,24,21,70,50,33,30.07,29.93,18,4,19,0.00
2013-3-24,42,37,33,32,25,22,94,63,46,30.03,29.68,7,2,11,0.00
2013-3-25,37,34,33,35,33,32,96,95,92,29.74,29.54,11,2,12,0.58
2013-3-26,49,41,33,36,32,28,96,74,45,30.02,29.74,18,6,22,0.03
2013-3-27,50,43,37,34,30,27,74,61,46,30.15,30.02,22,8,30,0.00
2013-3-28,48,42,36,34,30,27,72,63,52,30.26,30.12,20,7,26,0.00
2013-3-29,56,47,40,37,32,27,73,56,38,30.28,30.17,16,4,17,0.00
2013-3-30,59,50,41,34,29,25,61,44,28,30.25,30.13,13,2,18,0.00
2013-3-31,53,48,44,50,41,30,95,77,52,30.15,29.76,7,2,16,0.03
2013-4-1,65,50,41,46,39,24,96,68,38,30.01,29.76,21,6,30,0.01
2013-4-2,49,42,36,24,18,14,52,38,26,30.20,30.01,17,6,25,0.00
2013-4-3,51,41,33,21,18,14,58,40,24,30.42,30.20,19,6,28,0.00
2013-4-4,49,39,29,36,20,14,92,49,26,30.44,30.12,8,2,9,0.12
2013-4-5,64,50,37,40,34,23,96,61,28,30.12,29.85,16,5,21,0.23
2013-4-6,56,47,36,33,24,18,64,41,25,30.34,30.07,16,4,19,0.00
2013-4-7,71,54,39,43,38,30,80,55,34,30.30,30.01,9,4,12,0.00
2013-4-8,80,68,55,51,47,43,66,48,31,30.09,29.95,7,3,11,0.00
2013-4-9,85,75,62,59,54,51,70,50,34,30.09,29.93,11,4,17,0.00
2013-4-10,90,79,66,61,56,53,66,46,33,29.99,29.78,14,4,19,0.00
2013-4-11,86,73,56,63,58,53,89,62,35,29.88,29.73,16,3,24,0.00
2013-4-12,74,61,52,67,58,50,97,91,75,29.81,29.58,12,4,21,0.44
2013-4-13,69,58,46,52,42,38,93,59,35,29.97,29.76,18,3,19,0.00
2013-4-14,67,57,45,46,41,38,77,57,38,30.16,29.97,12,3,16,0.00
2013-4-15,63,58,54,53,48,44,82,69,61,30.30,30.15,11,3,13,0.00
2013-4-16,75,64,55,61,56,49,88,76,57,30.33,30.13,7,2,10,0.00
2013-4-17,78,67,59,65,60,56,97,80,58,30.24,30.13,10,2,12,0.08
2013-4-18,77,66,59,66,60,56,96,82,58,30.24,30.01,9,3,12,0.19
2013-4-19,77,66,50,67,61,49,95,84,68,30.01,29.60,12,3,21,1.19
2013-4-20,60,52,45,48,34,29,93,51,35,30.35,29.79,19,6,22,0.01
2013-4-21,55,47,38,33,28,23,66,48,31,30.61,30.35,11,2,14,0.00
2013-4-22,56,46,37,40,36,33,89,70,51,30.60,30.43,11,3,16,0.00
2013-4-23,59,52,49,45,40,-100,81,69,58,30.18,30.14,3,-29,5,0.00
2013-4-24,78,62,46,58,51,43,94,70,45,30.15,29.81,17,3,27,0.00
2013-4-25,64,54,45,51,36,29,80,52,28,30.33,29.99,18,5,24,0.02
2013-4-26,65,56,46,42,38,33,68,50,34,30.47,30.33,8,2,12,0.00
2013-4-27,71,60,49,46,41,36,76,51,33,30.43,30.30,7,1,13,0.00
2013-4-28,67,57,48,52,45,39,83,67,39,30.31,30.16,7,1,9,0.01
2013-4-29,60,56,53,58,54,46,97,94,69,30.18,30.06,11,2,12,0.33
2013-4-30,58,56,54,57,54,48,98,95,79,30.31,30.11,9,2,14,0.13
2013-5-1,70,58,46,50,44,38,91,63,35,30.44,30.30,14,2,16,0.00
2013-5-2,67,56,45,52,46,44,95,73,51,30.46,30.34,11,2,16,0.00
2013-5-3,68,56,47,49,45,41,93,68,41,30.40,30.32,13,3,17,0.00
2013-5-4,67,56,48,48,44,40,87,66,46,30.36,30.20,13,3,16,0.00
2013-5-5,62,53,45,47,43,39,86,70,52,30.27,30.17,15,3,17,0.00
2013-5-6,62,55,50,58,52,45,96,89,83,30.20,30.07,14,4,16,0.01
2013-5-7,63,60,57,62,59,56,98,96,93,30.08,29.94,13,4,17,0.58
2013-5-8,70,60,56,60,57,55,98,91,60,30.02,29.94,5,1,11,0.21
2013-5-9,74,62,54,64,58,53,98,87,62,30.02,29.94,7,1,10,0.04
2013-5-10,84,71,58,65,60,55,96,71,44,30.04,29.87,11,1,20,0.24
2013-5-11,78,67,63,69,64,62,98,91,67,29.93,29.71,9,1,12,0.24
2013-5-12,64,59,51,62,42,30,97,56,32,30.05,29.76,17,6,20,0.00
2013-5-13,60,52,45,38,32,26,68,47,29,30.19,30.04,18,3,19,0.00
2013-5-14,65,53,40,42,36,31,79,54,34,30.24,30.07,10,2,13,0.00
2013-5-15,86,68,53,67,55,41,80,66,50,30.07,29.70,6,1,11,0.00
2013-5-16,84,75,69,66,60,55,72,60,46,29.93,29.77,13,3,19,0.00
2013-5-17,83,72,61,61,56,50,86,59,37,30.15,29.93,7,2,8,0.00
2013-5-18,68,62,58,60,57,52,96,84,58,30.25,30.15,8,2,13,0.10
2013-5-19,76,65,59,68,63,58,98,92,74,30.22,30.10,8,2,9,0.01
2013-5-20,82,71,65,72,67,64,97,88,67,30.14,29.99,7,1,9,0.00
2013-5-21,82,73,67,74,69,65,97,86,69,30.01,29.89,7,1,8,0.00
2013-5-22,89,78,67,76,71,65,97,80,59,29.94,29.84,11,1,12,0.05
2013-5-23,81,72,63,71,67,62,96,86,66,29.92,29.75,7,1,11,1.28
2013-5-24,64,56,47,62,49,36,97,78,59,30.17,29.76,21,7,25,0.05
2013-5-25,66,54,43,45,38,34,73,55,37,30.21,30.11,21,6,24,0.00
2013-5-26,72,61,49,46,40,36,65,48,30,30.24,30.14,12,4,17,0.00
2013-5-27,70,62,51,52,45,40,71,54,37,30.30,30.20,7,1,9,0.00
2013-5-28,84,68,58,70,61,50,96,80,60,30.22,30.08,6,1,10,0.56
2013-5-29,88,75,65,74,67,64,96,79,51,30.14,30.08,7,1,10,0.00
2013-5-30,90,79,68,74,68,64,88,69,46,30.19,30.11,7,1,9,0.00
2013-5-31,90,79,68,72,67,64,89,67,47,30.16,30.03,11,2,15,0.00
2013-6-1,91,80,69,74,68,64,86,68,52,30.05,29.93,9,2,15,0.00
2013-6-2,84,76,69,74,68,64,96,79,65,29.93,29.84,10,2,15,0.57
2013-6-3,81,72,66,72,67,58,98,85,67,29.96,29.83,10,2,12,0.41
2013-6-4,75,67,59,58,51,45,79,59,39,30.14,29.96,8,3,10,0.00
2013-6-5,79,69,58,61,55,50,79,61,46,30.19,30.06,7,1,10,0.00
2013-6-6,72,67,62,65,61,54,96,81,70,30.09,29.87,9,1,11,0.47
2013-6-7,70,68,65,70,67,64,98,97,96,29.87,29.60,8,2,9,2.00
2013-6-8,80,70,64,67,63,60,97,79,53,30.10,29.72,8,2,10,0.01
2013-6-9,81,73,65,72,66,60,90,78,62,30.20,30.09,9,2,11,0.00
2013-6-10,80,72,68,76,70,67,98,95,85,30.11,29.80,7,1,10,1.53
2013-6-11,83,74,66,70,67,64,98,80,61,29.86,29.79,9,3,16,0.00
2013-6-12,88,78,67,72,67,63,89,70,50,29.88,29.79,12,2,17,0.00
2013-6-13,86,74,68,75,68,57,96,82,60,29.82,29.47,23,4,24,0.14
2013-6-14,77,69,60,61,57,52,88,66,48,29.99,29.60,14,4,21,0.01
2013-6-15,82,73,62,66,59,54,82,63,46,30.09,29.99,9,2,13,0.00
2013-6-16,85,75,66,70,65,56,84,70,57,30.04,29.89,10,2,13,0.00
2013-6-17,86,78,70,74,69,64,88,75,59,29.97,29.88,10,1,11,0.00
2013-6-18,75,70,65,70,68,64,97,91,83,29.92,29.80,12,0,12,0.33
2013-6-19,75,68,63,67,64,60,97,86,69,30.17,29.90,7,1,8,0.00
2013-6-20,80,70,63,67,61,55,96,75,55,30.29,30.17,6,1,8,0.00
2013-6-21,82,71,58,64,58,54,88,64,41,30.32,30.24,8,1,10,0.00
2013-6-22,86,75,63,72,66,62,96,76,55,30.27,30.15,6,1,9,0.00
2013-6-23,84,74,69,75,70,67,97,87,70,30.19,30.08,5,1,8,0.66
2013-6-24,89,77,71,78,72,68,97,84,55,30.14,30.04,5,1,6,0.03
2013-6-25,90,80,69,77,72,65,96,77,53,30.05,29.90,13,2,21,0.06
2013-6-26,90,77,68,77,70,66,95,81,59,29.93,29.82,8,1,10,0.01
2013-6-27,81,74,68,75,71,67,97,90,80,29.85,29.64,7,1,9,0.00
2013-6-28,88,74,69,76,70,66,97,88,61,29.65,29.49,8,1,12,1.31
2013-6-29,87,76,66,72,68,64,98,76,50,29.67,29.54,7,1,7,0.01
2013-6-30,86,77,71,77,73,69,96,88,70,29.83,29.67,7,1,10,0.00
2013-7-1,82,76,71,76,72,68,96,89,73,29.96,29.82,5,1,10,0.08
2013-7-2,81,76,73,76,73,72,97,92,82,30.15,29.96,5,1,14,0.09
2013-7-3,85,75,71,80,74,70,98,95,80,30.21,30.15,3,0,7,1.16
2013-7-4,88,80,73,78,74,72,98,84,63,30.24,30.14,7,1,11,0.00
2013-7-5,89,81,72,79,74,71,95,80,61,30.21,30.10,9,1,15,0.00
2013-7-6,92,82,74,78,74,71,95,77,57,30.16,30.05,10,1,11,0.00
2013-7-7,90,79,70,79,73,69,96,82,63,30.09,29.97,10,2,19,0.18
2013-7-8,84,76,70,75,71,69,98,85,60,30.09,30.01,7,1,9,0.16
2013-7-9,84,77,71,76,73,69,95,87,72,30.08,29.98,3,0,7,0.01
2013-7-10,88,78,72,79,74,71,96,88,68,30.00,29.83,6,1,17,0.13
2013-7-11,85,77,72,74,72,70,97,85,64,29.90,29.82,6,1,10,0.00
2013-7-12,74,69,66,72,68,65,97,95,89,30.01,29.88,8,1,11,1.57
2013-7-13,84,75,69,76,71,68,98,87,71,30.25,30.01,5,0,8,0.00
2013-7-14,89,80,74,78,74,71,98,82,60,30.31,30.24,6,1,7,0.00
2013-7-15,92,83,73,78,74,71,95,76,56,30.28,30.16,5,1,0,0.00
2013-7-16,93,84,77,79,73,70,86,70,52,30.22,30.14,8,2,10,0.00
2013-7-17,93,85,78,80,74,70,83,70,52,30.19,30.06,8,1,8,0.00
2013-7-18,95,86,77,82,77,73,88,76,55,30.09,29.97,5,1,7,0.00
2013-7-19,95,86,78,82,77,70,90,75,58,29.99,29.84,11,2,11,0.00
2013-7-20,92,83,77,80,75,70,92,76,57,29.88,29.76,11,2,12,0.00
2013-7-21,91,80,74,77,72,68,94,79,55,29.92,29.84,6,1,8,0.02
2013-7-22,89,79,72,78,74,70,96,84,63,29.91,29.73,7,0,9,0.02
2013-7-23,86,79,72,76,71,68,96,79,58,29.74,29.62,11,2,14,0.00
2013-7-24,83,77,72,72,67,60,85,72,57,29.89,29.66,10,3,13,0.00
2013-7-25,79,70,62,65,59,54,86,67,52,30.02,29.89,8,2,13,0.00
2013-7-26,83,72,62,68,62,60,94,73,50,30.08,30.00,5,1,7,0.00
2013-7-27,85,73,66,74,68,62,97,87,63,30.04,29.91,7,1,11,0.30
2013-7-28,84,74,68,75,70,67,97,88,62,29.97,29.87,5,0,8,0.07
2013-7-29,82,73,65,69,61,54,94,68,44,30.15,29.96,12,2,12,0.00
2013-7-30,82,73,64,65,61,57,79,67,49,30.21,30.12,5,1,7,0.00
2013-7-31,79,72,67,70,67,63,96,83,72,30.13,30.00,7,0,7,0.05
2013-8-1,82,73,68,75,70,67,98,92,74,30.00,29.79,6,1,7,0.27
2013-8-2,86,76,68,71,67,64,95,75,53,29.95,29.83,8,2,11,0.00
2013-8-3,80,72,67,70,67,65,96,84,65,29.95,29.89,10,1,10,0.12
2013-8-4,81,72,64,66,61,55,97,72,47,30.02,29.89,13,3,18,0.00
2013-8-5,81,71,61,66,57,53,82,63,41,30.09,29.99,7,1,7,0.00
2013-8-6,72,69,66,68,66,60,96,90,76,30.06,29.98,4,0,6,0.09
2013-8-7,83,74,68,75,71,66,96,88,74,30.05,29.97,5,1,9,0.02
2013-8-8,86,77,73,77,74,71,96,89,73,30.01,29.95,7,1,20,0.15
2013-8-9,90,81,74,79,75,71,96,82,63,29.95,29.83,9,2,13,0.00
2013-8-10,84,77,72,72,67,60,88,73,48,30.06,29.92,6,2,7,0.01
2013-8-11,84,76,71,73,69,65,93,79,57,30.09,29.98,4,1,9,0.00
2013-8-12,88,79,70,74,70,66,96,75,48,30.01,29.88,8,1,10,0.00
2013-8-13,84,76,70,74,71,67,97,85,63,29.88,29.71,13,2,19,0.73
2013-8-14,74,67,58,68,55,50,94,66,51,30.09,29.79,18,5,20,0.00
2013-8-15,77,67,56,57,54,48,88,65,38,30.18,30.07,8,1,9,0.00
2013-8-16,78,68,59,64,57,54,91,69,49,30.18,30.11,7,0,10,0.00
2013-8-17,78,70,61,64,59,56,90,70,49,30.25,30.17,11,2,13,0.00
2013-8-18,71,67,64,66,64,61,96,89,73,30.22,30.15,9,1,10,0.13
2013-8-19,73,68,62,68,65,61,97,90,80,30.17,30.06,4,0,8,0.00
2013-8-20,87,76,65,72,68,64,97,80,54,30.15,30.07,6,1,8,0.00
2013-8-21,88,78,70,76,72,69,98,84,62,30.17,30.05,6,1,8,0.03
2013-8-22,88,78,70,73,70,67,97,77,53,30.07,29.91,9,2,12,0.00
2013-8-23,75,71,64,72,66,59,95,85,77,30.10,29.91,8,1,12,0.14
2013-8-24,81,71,61,65,61,58,94,73,49,30.32,30.10,5,1,9,0.00
2013-8-25,82,70,62,66,61,56,96,74,49,30.39,30.25,6,1,8,0.00
2013-8-26,87,74,61,68,62,57,88,69,47,30.28,30.00,7,2,10,0.00
2013-8-27,90,79,71,75,70,66,85,74,56,29.99,29.86,9,2,13,0.00
2013-8-28,78,75,72,75,72,69,97,90,79,29.90,29.80,8,1,10,0.19
2013-8-29,83,75,71,73,70,68,98,86,64,30.01,29.81,8,1,11,0.00
2013-8-30,86,76,69,74,70,67,96,82,62,30.02,29.87,7,1,11,0.00
2013-8-31,89,78,69,76,72,68,94,80,62,29.89,29.77,7,1,11,0.00
2013-9-1,91,79,69,76,71,67,96,79,54,29.83,29.74,7,1,8,0.00
2013-9-2,89,78,69,76,72,68,97,82,58,29.79,29.70,8,1,14,0.08
2013-9-3,83,77,67,73,65,57,91,68,45,29.94,29.71,10,3,15,0.00
2013-9-4,82,71,60,62,57,51,82,64,35,30.07,29.94,8,2,10,0.00
2013-9-5,84,73,63,66,60,50,83,64,49,30.11,29.99,10,3,15,0.00
2013-9-6,77,66,56,55,50,45,77,58,36,30.24,30.11,8,1,8,0.00
2013-9-7,81,68,56,64,59,52,90,74,52,30.13,29.92,6,1,9,0.00
2013-9-8,87,76,65,69,64,59,92,69,48,30.03,29.86,8,1,11,0.00
2013-9-9,78,70,61,69,59,50,89,69,58,30.18,30.03,6,1,10,0.00
2013-9-10,90,79,71,76,72,68,94,80,60,30.16,30.07,9,1,10,0.00
2013-9-11,94,82,73,78,73,70,96,77,51,30.12,29.98,5,1,9,0.00
2013-9-12,92,76,70,76,71,68,96,84,56,29.98,29.72,11,1,12,0.29
2013-9-13,78,69,60,68,59,51,93,72,45,29.92,29.68,15,4,19,0.00
2013-9-14,70,60,52,53,48,46,81,65,48,30.15,29.92,9,3,13,0.00
2013-9-15,76,64,52,59,53,46,87,68,48,30.23,30.08,6,1,12,0.00
2013-9-16,71,64,60,64,58,56,95,82,65,30.21,30.02,11,2,15,0.03
2013-9-17,67,58,50,56,47,40,89,68,38,30.42,30.21,8,1,9,0.00
2013-9-18,71,59,48,52,48,45,93,70,41,30.33,30.18,6,1,9,0.00
2013-9-19,76,64,53,61,56,51,94,76,53,30.19,30.07,8,1,9,0.00
2013-9-20,82,60,57,66,45,-100,94,73,55,30.08,29.94,6,0,9,0.00
2013-9-21,76,66,60,66,62,57,97,88,67,29.95,29.67,7,1,13,1.20
2013-9-22,72,63,57,61,56,49,97,78,54,29.94,29.71,11,3,12,0.01
2013-9-23,66,58,53,51,48,45,84,69,54,30.08,29.93,11,2,12,0.00
2013-9-24,71,59,49,54,48,45,85,69,49,30.11,29.94,8,2,9,0.00
2013-9-25,73,62,52,54,50,44,86,67,40,29.98,29.87,6,1,7,0.00
2013-9-26,74,64,56,57,53,51,86,70,51,30.06,29.91,9,1,11,0.00
2013-9-27,71,63,56,61,57,53,90,81,65,30.23,30.06,7,1,9,0.00
2013-9-28,68,62,57,57,55,53,92,80,63,30.29,30.21,8,1,11,0.00
2013-9-29,73,61,53,60,55,52,96,81,60,30.21,30.05,8,1,8,0.00
2013-9-30,76,63,54,60,55,51,92,76,52,30.09,29.97,6,0,7,0.00
2013-10-1,82,69,58,65,59,55,92,74,51,30.07,29.96,7,1,9,0.00
2013-10-2,84,73,64,66,61,58,83,67,47,30.07,29.98,8,2,10,0.00
2013-10-3,82,72,65,68,64,60,88,75,60,30.10,30.02,5,0,6,0.00
2013-10-4,85,74,64,71,66,62,96,78,54,30.07,29.99,8,1,8,0.00
2013-10-5,87,76,68,70,67,64,89,75,54,30.07,29.98,5,1,8,0.00
2013-10-6,88,75,66,72,67,65,96,78,53,30.00,29.90,6,1,13,0.00
2013-10-7,73,66,56,71,62,48,97,88,70,30.04,29.77,11,2,20,1.33
2013-10-8,67,58,52,51,48,46,86,71,51,30.27,30.04,9,2,11,0.00
2013-10-9,60,55,52,53,50,47,94,84,73,30.31,30.19,7,1,15,0.20
2013-10-10,58,55,52,57,54,51,97,96,94,30.19,29.97,8,3,12,2.15
2013-10-11,62,59,55,61,58,54,98,98,97,29.98,29.92,9,3,11,3.00
2013-10-12,66,62,60,63,60,59,98,95,83,30.14,29.97,10,2,14,0.27
2013-10-13,63,60,57,59,58,54,97,93,87,30.31,30.14,10,2,13,0.03
2013-10-14,68,59,54,59,55,52,96,85,66,30.33,30.22,7,1,10,0.00
2013-10-15,70,49,52,58,23,-100,97,63,44,30.24,30.08,6,1,9,0.00
2013-10-16,71,22,62,65,-46,-100,89,27,77,30.08,29.90,4,0,8,0.00
2013-10-17,74,25,62,66,-43,-100,98,28,71,29.90,29.71,10,1,16,0.00
2013-10-18,65,16,54,48,-62,-100,67,14,49,30.00,29.80,13,2,14,0.00
2013-10-19,66,23,54,58,-40,-100,92,31,69,29.99,29.77,7,1,9,0.00
2013-10-20,63,53,45,50,40,36,83,62,42,30.09,29.85,12,3,18,0.00
2013-10-21,67,54,44,49,44,40,89,71,39,30.14,29.96,5,1,9,0.00
2013-10-22,65,55,47,53,47,37,90,76,54,29.96,29.81,7,2,7,0.00
2013-10-23,58,49,43,43,39,36,88,70,45,29.90,29.65,9,2,14,0.01
2013-10-24,51,44,40,38,33,28,82,65,45,30.14,29.90,9,4,7,0.00
2013-10-25,55,44,36,37,33,30,81,66,48,30.33,30.13,17,4,17,0.00
2013-10-26,56,46,34,36,32,29,83,60,40,30.31,29.94,9,2,20,0.00
2013-10-27,60,41,42,42,9,-100,79,47,45,30.14,29.96,9,1,13,0.00
2013-10-28,63,51,41,48,40,36,85,68,47,30.27,30.14,5,1,7,0.00
2013-10-29,62,52,42,47,43,38,87,72,49,30.37,30.26,3,1,7,0.00
2013-10-30,64,56,50,58,53,46,96,90,77,30.32,30.14,5,0,7,0.02
2013-10-31,67,61,55,61,58,54,97,90,80,30.18,29.77,6,1,7,0.01
2013-11-1,72,66,60,65,61,58,95,84,61,29.77,29.58,10,2,18,0.14
2013-11-2,67,58,50,59,46,40,94,68,51,29.87,29.63,9,3,10,0.01
2013-11-3,57,48,41,42,31,-100,79,58,31,30.44,29.87,13,3,19,0.00
2013-11-4,45,31,31,28,-1,-100,76,45,41,30.64,30.44,7,1,11,0.00
2013-11-5,56,48,38,48,40,27,84,73,62,30.62,30.45,4,0,7,0.00
2013-11-6,69,58,50,56,51,47,91,80,59,30.46,30.06,8,1,10,0.00
2013-11-7,61,53,43,57,47,26,97,81,50,30.07,29.87,20,5,22,0.03
2013-11-8,52,43,36,33,28,26,70,56,41,30.32,30.07,14,4,23,0.00
2013-11-9,56,44,33,34,30,26,80,59,38,30.36,30.04,12,2,15,0.00
2013-11-10,64,50,43,40,32,28,63,51,31,30.23,29.96,18,5,25,0.00
2013-11-11,58,48,37,37,32,29,76,55,39,30.30,30.00,8,2,11,0.00
2013-11-12,51,41,31,39,25,16,71,53,44,30.40,29.98,21,6,27,0.00
2013-11-13,42,35,28,25,21,18,71,57,45,30.49,30.39,14,4,19,0.00
2013-11-14,58,42,30,26,22,17,65,46,23,30.39,30.23,4,1,6,0.00
2013-11-15,60,47,36,43,29,23,90,52,28,30.28,30.18,4,1,7,0.09
2013-11-16,52,36,44,50,9,-100,97,70,90,30.32,30.23,5,1,6,0.35
2013-11-17,61,41,53,58,10,-100,98,65,89,30.22,29.74,5,1,9,0.00
2013-11-18,68,59,48,61,41,28,95,57,25,29.94,29.68,20,5,28,0.18
2013-11-19,48,44,37,31,28,27,68,56,47,30.37,29.93,17,6,21,0.00
2013-11-20,47,38,33,30,26,24,80,64,42,30.56,30.37,8,1,10,0.00
2013-11-21,50,42,34,40,34,29,87,76,66,30.57,30.41,4,0,5,0.00
2013-11-22,64,58,48,54,51,43,87,79,68,30.24,30.00,11,2,14,0.00
2013-11-23,56,44,31,50,29,14,78,58,41,30.19,30.02,23,10,27,0.00
2013-11-24,32,27,23,14,8,4,56,46,37,30.54,30.18,28,9,33,0.00
2013-11-25,37,29,20,14,11,9,67,49,34,30.58,30.35,8,2,12,0.00
2013-11-26,43,36,33,42,29,13,96,78,41,30.35,29.61,15,2,18,1.75
2013-11-27,39,36,28,38,32,17,97,86,61,30.05,29.52,25,10,30,0.62
2013-11-28,38,31,26,23,18,14,68,58,46,30.48,30.05,17,5,25,0.00
2013-11-29,42,33,28,26,21,-100,77,63,46,30.72,30.46,13,3,17,0.00
2013-11-30,37,31,24,26,22,19,81,68,53,30.73,30.38,5,1,8,0.00
2013-12-1,50,38,28,33,29,23,85,69,50,30.38,30.02,6,1,7,0.00
2013-12-2,48,44,41,40,37,33,81,77,69,30.02,29.87,3,0,6,0.00
2013-12-3,57,47,40,42,38,35,84,73,54,29.99,29.88,5,0,8,0.00
2013-12-4,56,50,42,50,45,38,90,83,76,30.08,29.99,6,1,6,0.00
2013-12-5,70,60,53,61,57,50,96,89,71,30.06,29.92,7,2,10,0.00
2013-12-6,65,50,38,63,49,38,96,95,93,30.16,29.87,19,4,24,0.92
2013-12-7,42,37,31,37,31,23,96,82,66,30.55,30.12,14,5,20,0.19
2013-12-8,32,29,28,30,25,21,95,85,73,30.59,30.30,7,2,9,0.01
2013-12-9,34,33,32,33,32,30,97,96,95,30.33,30.03,3,0,0,0.23
2013-12-10,36,33,29,34,30,22,97,90,72,30.23,29.99,13,2,21,0.18
2013-12-11,39,32,24,25,21,18,83,66,51,30.42,30.23,7,1,9,0.21
2013-12-12,34,28,24,23,16,11,74,61,49,30.44,30.26,15,4,20,0.03
2013-12-13,41,33,24,24,18,14,75,55,41,30.32,30.23,9,2,13,0.08
2013-12-14,39,36,34,35,30,21,96,81,56,30.32,29.71,10,2,14,0.59
2013-12-15,46,37,30,40,31,24,97,81,62,29.95,29.64,24,5,25,0.05
2013-12-16,37,34,31,27,26,23,79,71,65,30.19,29.95,10,2,13,0.00
2013-12-17,40,36,33,35,31,27,89,82,76,30.17,29.93,8,2,10,0.01
2013-12-18,41,34,30,32,26,23,93,72,51,30.22,30.00,17,3,21,0.01
2013-12-19,61,44,30,33,28,23,85,57,34,30.21,30.08,8,2,14,0.00
2013-12-20,59,52,43,44,35,30,61,53,42,30.12,29.99,7,3,12,0.00
2013-12-21,72,62,53,62,52,43,84,72,58,30.02,29.88,11,4,21,0.00
2013-12-22,70,64,61,64,61,59,95,89,73,30.00,29.81,15,4,19,0.26
2013-12-23,62,54,38,61,51,29,97,88,71,30.22,29.91,22,5,25,0.80
2013-12-24,40,33,23,29,21,9,73,61,46,30.48,30.19,19,8,32,0.00
2013-12-25,33,25,20,20,13,11,81,61,44,30.58,30.39,10,3,12,0.00
2013-12-26,45,33,25,26,22,18,88,64,42,30.39,30.23,9,2,11,0.00
2013-12-27,51,39,31,26,22,17,62,50,30,30.43,30.32,9,2,9,0.00
2013-12-28,58,45,32,32,26,22,68,50,32,30.33,30.11,7,2,10,0.00
2013-12-29,47,44,41,46,40,28,97,85,49,30.11,29.53,10,3,16,1.25
2013-12-30,45,39,33,40,33,23,92,79,67,30.18,29.82,14,4,20,0.00
2013-12-31,46,35,30,32,23,18,76,62,46,30.33,30.11,18,4,25,0.00
2014-1-1,46,36,27,32,26,18,84,67,48,30.43,30.12,8,1,8,0.00
2014-1-2,38,34,31,34,31,29,94,88,79,30.12,29.61,9,1,9,0.00